CZ-2C DEB

Satellite information

Favourite Embed

Satellite Type and Status

DEBRISIN ORBIT

Key statistics

Satellite CZ-2C DEB at a glance.

Uptime

5828

Days in orbit

Revolutions

≈ 14.4

Per day

Orbit

SSO

Sun Synchronous Orbit

Inclination

98.2

Latest

Satellite identification and parameters

Extended collection of information and parameters for CZ-2C DEB.

Object identification

Identified? True

Debris? True

Object name: CZ-2C DEB

International designator: 2009-061F

Object number (NORAD): 36093

Object ID (CCSDS): 36093

Country: PEOPLES REPUBLIC OF CHINA (PRC)

Current information (Y/N): Y

RCS size: SMALL

Orbital parameters

Period: 99.667 minutes

Inclination: 98.1514 deg

SMA: 7120.801 km

Apoapsis: 827.027 km

Periapsis: 658.305 km

RAAN: 29.4811 deg

Eccentricy: 0.01184716

Argument of periapsis: 93.0729 deg

Mean anomaly: 268.4026 deg

Mean motion: 14.44805819 rev/day

Mean motion (dot): 0.00004754 rev/day2

B* drag term: 0.0012663103 1/REarth

Two-line elements (TLE)

Creation date: Oct. 27, 2025, 2:46 a.m.

Reference frame: TEME

Reference center: EARTH

Epoch: Oct. 26, 2025, 7:20 p.m. UTC

TLE line 0: 0 CZ-2C DEB

TLE line 1: 1 36093U 09061F 25299.80564589 .00004754 00000-0 12663-2 0 9999

TLE line 2: 2 36093 98.1514 29.4811 0118472 93.0729 268.4026 14.44805819832532

Live tracking on map

Real-time ground track for satellite CZ-2C DEB.

In-orbit conjunctions

A list of the most updated potential collisions computed for object CZ-2C DEB.

Target Orbit TCA Probability of collision Miss distance Type
SL-24 DEB SSO 2025-02-23 11:21:50 0.0002031184 105.0 (m) DEBRIS
CZ-6A DEB SSO 2024-11-10 23:18:22 0.0002738269 820.0 (m) DEBRIS
COSMOS 2219 LEO 2024-08-30 22:22:43 0.0001164132 170.0 (m) PAYLOAD

Associated space launch

Chinese experimental satellite of unknown purpose

CZ-2C DEB was lifted into orbit during the mission ‘Long March 2C | Shi Jian 11-01’, on board a Long March 2 space rocket.

The launch took place on Nov. 12, 2009, 2:45 a.m. from Launch Area 4 (SLS-2 / 603).

For more information about the launch, click the button.

Launch to space Long March 2C | Shi Jian 11-01
Long March 2C | Shi Jian 11-01

Agency: N/A

Status: Launch Successful

Launch date: Nov. 12, 2009, 2:45 a.m. UTC

Rocket: Long March 2

Launch pad: Launch Area 4 (SLS-2 / 603)

Location: Jiuquan Satellite Launch Center, People's Republic of China

...

Latest news about this satellite

There are no fresh news available about this satellite. Check back as we update our databases every day.


Newsletter sign-up

Weekly statistics, charts and insights to help you stay on top of the space industry.